DW5856 Weather Reports


Display with metric or nautical units.
time (UTC)temp
F
wind
direction
speed
MPH
gust
MPH
rain 1hr
in
rain 24hr
in
rain mn
in
humidity
%
barometer
mb
20260902094553 61 26 1.0 5.0 0.00 0.00 0.00 57 1005.1
20260902093048 63 285 1.0 3.0 0.00 0.00 0.00 55 1005.0
20260902091550 64 78 1.0 3.0 0.00 0.00 0.00 54 1005.1
20260902090045 65 69 2.0 7.0 0.00 0.00 0.00 52 1005.0
20260902084551 64 41 2.0 8.0 0.00 0.00 0.00 53 1004.9
20260902083045 63 13 6.0 8.0 0.00 0.00 0.00 54 1004.8
20260902081548 63 309 5.0 6.0 0.00 0.00 0.00 55 1004.9
20260902080039 64 55 5.0 6.0 0.00 0.00 0.00 56 1005.0
20260902074537 64 298 4.0 6.0 0.00 0.00 0.00 52 1004.9
20260902073036 64 329 3.0 4.0 0.00 0.00 0.00 54 1004.9
20260902071533 64 338 3.0 4.0 0.00 0.00 0.00 55 1005.1
20260902070031 64 304 3.0 6.0 0.00 0.00 0.00 55 1005.2
20260902064528 66 342 4.0 6.0 0.00 0.00 0.00 52 1005.2
20260902063023 69 44 6.0 8.0 0.00 0.00 0.00 48 1005.1
20260902061522 71 284 6.0 10.0 0.00 0.00 0.00 41 1005.0
20260902060019 71 274 6.0 8.0 0.00 0.00 0.00 42 1005.0
20260902054517 71 262 5.0 7.0 0.00 0.00 0.00 42 1005.1
20260902053027 72 271 4.0 8.0 0.00 0.00 0.00 42 1005.1
20260902051515 71 273 5.0 8.0 0.00 0.00 0.00 42 1004.9
20260902050014 70 273 2.0 6.0 0.00 0.00 0.00 44 1005.0
20260902044514 69 57 2.0 4.0 0.00 0.00 0.00 46 1005.1
20260902043014 70 259 2.0 4.0 0.00 0.00 0.00 45 1005.2
20260902041513 69 229 3.0 5.0 0.00 0.00 0.00 47 1005.3
20260902040012 67 257 2.0 4.0 0.00 0.02 0.00 51 1005.3
20260902034512 68 145 2.0 3.0 0.00 0.02 0.00 51 1005.0
20260902033013 69 145 0.0 4.0 0.00 0.02 0.00 48 1004.8
20260902031511 70 193 3.0 5.0 0.00 0.02 0.00 50 1004.7
20260902030010 71 181 4.0 6.0 0.00 0.02 0.00 48 1004.7
20260902024509 71 199 1.0 5.0 0.00 0.02 0.00 46 1004.3
20260902023009 72 175 2.0 3.0 0.00 0.02 0.00 43 1003.9
20260902021512 73 97 0.0 2.0 0.00 0.02 0.00 40 1003.8
20260902020007 75 97 0.0 0.0 0.00 0.02 0.00 40 1003.5
20260902014518 77 97 0.0 2.0 0.00 0.02 0.00 39 1003.5
20260902013007 78 97 1.0 5.0 0.00 0.02 0.00 38 1003.4
20260902011505 79 41 6.0 11.0 0.00 0.02 0.00 35 1003.3
20260902010004 80 81 4.0 8.0 0.00 0.02 0.00 36 1003.2
20260902004506 82 115 2.0 7.0 0.00 0.02 0.00 35 1003.4
20260902003003 83 51 2.0 8.0 0.00 0.02 0.00 31 1003.4
20260902001502 83 54 3.0 8.0 0.00 0.02 0.00 30 1003.4
20260902000103 83 40 3.0 10.0 0.00 0.02 0.00 31 1003.5
20260901234615 84 355 5.0 11.0 0.00 0.02 0.00 30 1003.5
20260901233102 84 360 7.0 17.0 0.00 0.02 0.00 31 1003.4
20260901231558 84 5 13.0 21.0 0.00 0.02 0.00 31 1003.4
20260901230136 86 336 15.0 20.0 0.00 0.02 0.00 28 1003.5
20260901224555 86 342 7.0 14.0 0.00 0.02 0.00 27 1003.4
20260901223110 84 313 12.0 23.0 0.00 0.02 0.00 29 1003.5
20260901221552 85 320 11.0 28.0 0.00 0.02 0.00 27 1003.2
20260901220059 87 317 10.0 16.0 0.00 0.02 0.00 26 1003.3
20260901214549 88 294 11.0 16.0 0.00 0.02 0.00 26 1003.4
20260901213049 87 317 9.0 15.0 0.00 0.02 0.00 26 1003.7
20260901211552 87 275 11.0 18.0 0.00 0.02 0.00 27 1003.9
20260901210039 86 248 7.0 17.0 0.00 0.02 0.00 28 1004.3
20260901204543 82 307 5.0 12.0 0.00 0.02 0.00 31 1004.6
20260901203035 80 221 7.0 15.0 0.00 0.02 0.00 33 1004.9
20260901201533 82 303 14.0 23.0 0.00 0.02 0.00 30 1005.1
20260901200135 84 140 2.0 6.0 0.00 0.02 0.00 34 1004.8
20260901194526 84 132 4.0 10.0 0.00 0.02 0.00 38 1004.6
20260901193025 82 139 5.0 10.0 0.00 0.02 0.00 37 1004.6
20260901191526 82 154 5.0 14.0 0.00 0.02 0.00 38 1004.8
20260901190104 82 134 7.0 11.0 0.00 0.02 0.00 38 1005.1
20260901184547 81 108 6.0 15.0 0.00 0.02 0.00 39 1005.3
20260901183048 80 152 4.0 13.0 0.00 0.02 0.00 44 1005.7
20260901181549 80 117 9.0 14.0 0.00 0.02 0.00 43 1005.8
20260901180041 80 113 7.0 13.0 0.00 0.02 0.00 43 1006.0
20260901174538 79 123 7.0 10.0 0.00 0.02 0.00 43 1006.1
20260901173045 78 92 5.0 12.0 0.00 0.02 0.00 47 1006.4
20260901171534 78 120 3.0 9.0 0.00 0.02 0.00 48 1006.4
20260901170032 78 191 6.0 10.0 0.00 0.02 0.00 51 1006.5
20260901164529 77 190 6.0 8.0 0.00 0.02 0.00 53 1006.5
20260901163027 76 112 3.0 7.0 0.00 0.02 0.00 53 1006.6
20260901161523 75 136 3.0 5.0 0.00 0.02 0.00 52 1006.5
20260901160019 72 116 1.0 4.0 0.00 0.02 0.00 60 1006.8
20260901154514 69 355 0.0 2.0 0.00 0.02 0.00 62 1006.9
20260901153018 67 355 0.0 2.0 0.00 0.02 0.00 66 1007.1
20260901151508 67 360 1.0 3.0 0.00 0.02 0.00 68 1007.1
20260901150004 65 43 2.0 3.0 0.00 0.02 0.00 71 1007.2
20260901144507 65 46 1.0 3.0 0.00 0.02 0.00 74 1007.2
20260901143009 64 46 1.0 3.0 0.00 0.02 0.00 75 1007.3
20260901141511 63 32 1.0 4.0 0.00 0.02 0.00 76 1007.4
20260901140007 63 44 3.0 5.0 0.00 0.02 0.00 77 1007.4
20260901134506 62 38 3.0 7.0 0.00 0.02 0.00 77 1007.2
20260901133007 62 5 5.0 10.0 0.00 0.02 0.00 77 1007.2
20260901131507 61 22 4.0 9.0 0.00 0.02 0.00 78 1006.8
20260901130002 61 360 3.0 6.0 0.00 0.02 0.00 78 1006.4
20260901124559 61 9 4.0 6.0 0.00 0.02 0.00 77 1006.4
20260901123057 62 360 3.0 4.0 0.00 0.02 0.00 73 1006.2
20260901121609 62 309 5.0 6.0 0.00 0.02 0.00 72 1006.2
20260901120104 63 264 0.0 1.0 0.00 0.02 0.00 69 1006.1
20260901114600 63 264 2.0 4.0 0.00 0.02 0.00 70 1006.0
20260901113052 62 198 1.0 4.0 0.00 0.02 0.00 71 1005.9
20260901111553 62 198 1.0 5.0 0.00 0.02 0.00 73 1006.0
20260901110048 62 189 3.0 5.0 0.00 0.02 0.00 74 1006.1
20260901104546 62 198 2.0 3.0 0.00 0.02 0.00 72 1006.2
20260901103044 63 198 0.0 3.0 0.00 0.02 0.00 72 1006.1
20260901101546 63 198 1.0 3.0 0.00 0.02 0.00 71 1006.3
20260901100041 63 198 0.0 3.0 0.00 0.02 0.00 72 1006.3